This demonstration page uses our WeatherBlox Daily Observations layout. Learn more.

Left ArrowRight Arrow

36.19886, -115.1175

Hourly Observations for August 26, 2015

Temp ( °F °C ) Dew Point ( °F °C ) Humidity (%) Winds ( mph kmh ) Pressure ( in mb ) Visibility ( mi km ) Precip ( " mm )
12:53 am 00:53 Mostly Clear 87 30.6 57 13.9 36 36 ESE 8 13 29.93 1014 10 16 0.00 0.00
1:53 am 01:53 Mostly Clear 86 30 57 13.9 37 37 ESE 8 13 29.94 1014 10 16 0.00 0.00
2:53 am 02:53 Clear 85 29.4 56 13.3 37 37 ENE 8 13 29.95 1014 10 16 0.00 0.00
3:53 am 03:53 Clear 85 29.4 55 12.8 36 36 ENE 8 13 29.96 1015 10 16 0.00 0.00
4:53 am 04:53 Clear 84 28.9 57 13.9 40 40 E 8 13 29.96 1015 10 16 0.00 0.00
5:53 am 05:53 Clear 83 28.3 57 13.9 41 41 E 8 13 29.98 1015 10 16 0.00 0.00
6:53 am 06:53 Sunny 83 28.3 58 14.4 43 43 E 9 15 30.01 1016 10 16 0.00 0.00
7:53 am 07:53 Sunny 84 28.9 58 14.4 41 41 E 7 11 30.03 1017 10 16 0.00 0.00
8:53 am 08:53 Sunny 85 29.4 58 14.4 40 40 ESE 9 15 30.05 1018 10 16 0.00 0.00
9:53 am 09:53 Sunny 85 29.4 59 15 42 42 SSE 7 11 30.05 1018 10 16 0.00 0.00
10:53 am 10:53 Sunny 85 29.4 61 16.1 45 45 SSE 7 11 30.06 1018 10 16 0.00 0.00
11:53 am 11:53 Mostly Cloudy 85 29.4 61 16.1 45 45 SE 6 9 30.05 1018 10 16 0.00 0.00
12:53 pm 12:53 Sunny 86 30 62 16.7 45 45 VRB 7 11 30.04 1017 10 16 0.00 0.00
1:53 pm 13:53 Sunny 89 31.7 61 16.1 39 39 SSW 7 11 30.01 1016 10 16 0.00 0.00
2:53 pm 14:53 Sunny 90 32.2 58 14.4 34 34 S 7 11 29.98 1015 10 16 0.00 0.00
3:53 pm 15:53 Sunny 92 33.3 55 12.8 29 29 ESE 5 7 29.95 1014 10 16 0.00 0.00
4:53 pm 16:53 Sunny 95 35 56 13.3 27 27 SSE 8 13 29.92 1013 10 16 0.00 0.00
5:53 pm 17:53 Sunny 94 34.4 56 13.3 28 28 ESE 8 13 29.91 1013 10 16 0.00 0.00
6:53 pm 18:53 Sunny 94 34.4 55 12.8 27 27 SE 8 13 29.91 1013 10 16 0.00 0.00
7:53 pm 19:53 Clear 91 32.8 55 12.8 30 30 ESE 6 9 29.93 1014 10 16 0.00 0.00
8:53 pm 20:53 Clear 90 32.2 54 12.2 29 29 E 5 7 29.96 1015 10 16 0.00 0.00
9:53 pm 21:53 Mostly Cloudy 90 32.2 53 11.7 28 28 E 9 15 29.98 1015 10 16 0.00 0.00
10:53 pm 22:53 Mostly Clear 87 30.6 53 11.7 31 31 E 6 9 30.01 1016 10 16 0.00 0.00
11:53 pm 23:53 Clear 86 30 53 11.7 32 32 ESE 6 9 30.01 1016 10 16 0.00 0.00

Powered by AerisWeather